STARLINK-36119, 67619

Orbit data source: Space-Track

STARLINK-36119, 67619 is a payload satellite owned by SpaceX/Seattle (US) in LEO that was launched on Fri, 30 Jan 2026 UTC via an FALCON 9 launch vehicle from the Air Force Eastern Test Range (AFETR). Payload-class satellites include a variety of spacecraft equipped with specific instruments for various scientific and technological missions. These include communications satellites like Starlink; space stations such as the ISS; scientific satellites like the Hubble; Earth observation satellites from companies like Planet Labs, Umbra, and HawkEye 360; GPS; miniature CubeSats for education and research; and military/defense satellites.

Loading next visibility...
Identifier
67619, 2026-020C
Orbit
LEO
Country
Flag of USUS
Related business
Manufacturer
SpaceX/Seattle
Mission
Operational spacecraft
Bus & Motor
STARLINK V2MO, Unknown motor
Mass
575 kg wet, ~530 kg dry
Launch date (UTC)
2026-01-30 (2 months ago)
Launch vehicle
FALCON 9
Launch site
Air Force Eastern Test Range (AFETR)
Object type
Payload
Rocket body
Debris
Shape & HBR
Unknown shape, 17.7 m
Radar Cross Section
RCS unknown

Expand to show TLE details & history
Last TLE update: 4 hours ago

TLE from 4 hours ago
0 STARLINK-36119
1 67619U 26020C   26104.86502383  .00013515  00000-0  49991-3 0  9997
2 67619  42.9986 295.7034 0001589 265.3757  94.6913 15.27569569 11646
Epoch: 2026-04-14T20:45Z
TLE epoch observation values (Epoch: 2026-04-14T20:45:38.058Z)
Latitude
-0.00005°
Longitude
141.25963°
Altitude
482.945 km
Speed
7.626 km/s
True Right ascension
19h 42m 48s
True Declination
0° 00' 00"
Sunlit
Object was in daylight at epoch
Visualization orbit readout
Latitude
Unknown
Longitude
Unknown
Altitude
Unknown
Speed
Unknown
Apparent Right ascension
Unknown
Apparent Declination
Unknown
Sunlit
N/A
Visualization observer readout
Local Sidereal Time
07:06:28
Azimuth
Unknown
Elevation
Unknown
Doppler factor
Unknown
Orbital elements
Apogee altitude
486.116 km
Perigee altitude
483.935 km
Semi-major axis
6,863.163 km
Eccentricity
0.00016
Inclination
42.9986°
RAAN
295.7034°
Arg. of periapsis
265.3757°
True anomaly
94.70945°
Mean anomaly
94.6913°
Eccentric anomaly
94.70037°
Mean motion
3.8173 °/min
Orbital period
94.31 mins
BSTAR
0.00049991
Loading maneuver chart data...
Computing Atmospheric mass density...
Loading historical data...
Loading historical data...
Loading historical data...
Loading historical data...
Loading historical data...
Loading historical data...
Loading historical data...

Documentation

Showing up to 5 results
|